Location: Trebic
(49.2170°N, 15.8830°E)
Time: 00:21:56
(UTC+02:00)

Transit 2A Rocket - Pass Details

Date: 30 July 2019
Orbit: 590 x 913 km, 66.7° (Epoch: 18 August)

Event Time Altitude Azimuth Distance (km) Brightness Sun altitude
Rises 09:38:29 0° 325° (NW) 3,190 7.8 39.0°
Reaches altitude 10° 09:41:02 10° 331° (NNW) 2,208 7.1 39.4°
Maximum altitude 09:45:53 50° 47° (NE) 859 6.1 40.2°
Drops below altitude 10° 09:50:18 10° 123° (ESE) 2,017 8.3 40.8°
Sets 09:52:33 0° 129° (SE) 2,886 8.8 41.2°
